Starlink 34469

operational
NORAD ID: 64615 Int'l Des: 2025-137 Owner: SPXS Country: US Constellation: starlink
LEOCIRCULAR

关于 Starlink 34469

正在加载描述...

实时位置

正在加载3D地球...

即将过境

高度历史

Altitude vs Time

uPlot chart will show altitude changes over time

两行轨道根数

1 64615U 25137X 26061.08283720 .00012173 00000-0 42251-3 0 9996
2 64615 53.1588 10.3289 0001089 84.4318 275.6807 15.30194279 39573
Epoch: Mar 2, 2026 • Age: 28 hours

当前状态

高度 475.6 km
速度 7.63 km/s
星下点 4.18°N, 36.17°W
发射日期 Jun 25, 2025
运行时间 0.6 years
类型 internet

技术详情

分类 Payload
质量 575.00 kg
干质量 530.00 kg
总质量 575.00 kg
长度 0.30 m
直径 4.10 m
跨度 29.00 m
形状 Box + pan
制造商 SPXS
平台类型 Starlink V2MO
阶段状态 In Orbit
所有者/国家 SPXS/US

大型星座

Loading constellations...